Weather History for KGON - December, 2011

Change the Weather History Date:

Sunday, December 4, 2011

  Actual Average Record
Temperature  
Mean Temperature 41 °F -  
Max Temperature 52 °F 45 °F 66 °F (1998)
Min Temperature 30 °F 27 °F 6 °F (1989)
Degree Days  
Heating Degree Days 24    
Moisture  
Dew Point 30 °F    
Average Humidity 61    
Maximum Humidity 93    
Minimum Humidity 38    
Precipitation  
Precipitation 0.00 in - - ()
Sea Level Pressure  
Sea Level Pressure 30.50 in    
Wind  
Wind Speed 4 mph (SSW)    
Max Wind Speed 9 mph    
Max Gust Speed -    
Visibility 10 miles    
Events      
Averages and records for this station are not official NWS values.
T = Trace of Precipitation, MM = Missing Value Source: NWS Daily Summary

Daily Weather History Graph

Daily Weather History Graph

Search for Another Location

Airport or City:

Trip Planner

Search our weather history database for the weather conditions in past years. The results will help you decide how hot, cold, wet, or windy it might be!

Date:

Astronomy

Dec. 04, 2011 Rise Set
Actual Time 6:57 AM EST 4:19 PM EST
Civil Twilight 6:26 AM EST 4:49 PM EST
Nautical Twilight 5:52 AM EST 5:24 PM EST
Astronomical Twilight 5:18 AM EST 5:57 PM EST
Moon 12:50 PM EST (12/4) 1:16 AM EST (12/4)
Length of Visible Light 10h 23m
Length of Day
9h 21m
Waxing Gibbous, 71% of the Moon is Illuminated
Dec 4
Waxing Gibbous
Dec 10
Full
Dec 17
Last Quarter
Dec 24
New
Jan 1
First Quarter

Hourly Weather History & Observations

Time (EST) Temp. Windchill Dew Point Humidity Pressure Visibility Wind Dir Wind Speed Gust Speed Precip Events Conditions
12:56 AM 33.1 °F 30.0 °F 30.9 °F 92% 30.61 in 10.0 mi NNE 3.5 mph - N/A   Mostly Cloudy
1:56 AM 32.0 °F - 30.0 °F 92% 30.61 in 9.0 mi Calm Calm - N/A   Mostly Cloudy
2:56 AM 33.1 °F 28.7 °F 30.9 °F 92% 30.61 in 10.0 mi North 4.6 mph - N/A   Mostly Cloudy
3:56 AM 33.1 °F 30.0 °F 30.9 °F 92% 30.58 in 10.0 mi North 3.5 mph - N/A   Clear
4:56 AM 30.0 °F - 28.0 °F 92% 30.58 in 8.0 mi Calm Calm - N/A   Clear
5:46 AM 32.0 °F 28.7 °F 30.2 °F 93% 30.59 in 9.0 mi North 3.5 mph - N/A   Overcast
5:56 AM 33.1 °F 30.0 °F 30.9 °F 92% 30.59 in 9.0 mi North 3.5 mph - N/A   Overcast
6:56 AM 35.1 °F 31.0 °F 32.0 °F 89% 30.59 in 10.0 mi North 4.6 mph - N/A   Overcast
7:15 AM 35.6 °F 31.7 °F 30.2 °F 81% 30.58 in 8.0 mi NNE 4.6 mph - N/A   Overcast
7:56 AM 36.0 °F - 30.9 °F 82% 30.58 in 8.0 mi Calm Calm - N/A   Clear
8:56 AM 43.0 °F 41.3 °F 32.0 °F 65% 30.58 in 10.0 mi North 3.5 mph - N/A   Clear
9:56 AM 48.9 °F - 32.0 °F 52% 30.57 in 10.0 mi Calm Calm - N/A   Clear
10:56 AM 50.0 °F - 32.0 °F 50% 30.56 in 10.0 mi South 3.5 mph - N/A   Scattered Clouds
11:56 AM 52.0 °F - 32.0 °F 47% 30.53 in 10.0 mi South 3.5 mph - N/A   Scattered Clouds
12:56 PM 51.1 °F - 32.0 °F 48% 30.50 in 10.0 mi South 4.6 mph - N/A   Overcast
1:56 PM 51.1 °F - 30.9 °F 46% 30.47 in 10.0 mi South 3.5 mph - N/A   Mostly Cloudy
2:56 PM 51.8 °F - 30.2 °F 44% 30.45 in 10.0 mi SSW 3.5 mph - N/A   Partly Cloudy
3:56 PM 50.0 °F - 30.0 °F 46% 30.45 in 10.0 mi Calm Calm - N/A   Mostly Cloudy
4:56 PM 48.0 °F - 30.0 °F 50% 30.44 in 10.0 mi SW 4.6 mph - N/A   Mostly Cloudy
5:04 PM 50.0 °F - 30.2 °F 47% 30.44 in 10.0 mi SSW 9.2 mph - N/A   Mostly Cloudy
5:16 PM 50.0 °F - 30.2 °F 47% 30.44 in 10.0 mi SSW 8.1 mph - N/A   Scattered Clouds
5:32 PM 51.8 °F - 30.2 °F 44% 30.44 in 10.0 mi South 8.1 mph - N/A   Mostly Cloudy
5:42 PM 51.8 °F - 30.2 °F 44% 30.44 in 10.0 mi South 9.2 mph - N/A   Mostly Cloudy
5:56 PM 52.0 °F - 30.0 °F 43% 30.44 in 10.0 mi South 9.2 mph - N/A   Mostly Cloudy
6:08 PM 51.8 °F - 30.2 °F 44% 30.44 in 10.0 mi South 8.1 mph - N/A   Mostly Cloudy
6:32 PM 50.0 °F - 30.2 °F 47% 30.43 in 10.0 mi South 6.9 mph - N/A   Scattered Clouds
6:56 PM 50.0 °F - 28.9 °F 44% 30.44 in 10.0 mi South 6.9 mph - N/A   Clear
7:56 PM 44.1 °F 42.5 °F 30.0 °F 58% 30.44 in 10.0 mi SW 3.5 mph - N/A   Clear
8:56 PM 45.0 °F - 28.9 °F 53% 30.43 in 8.0 mi Calm Calm - N/A   Partly Cloudy
9:56 PM 52.0 °F - 27.0 °F 38% 30.42 in 10.0 mi SW 4.6 mph - N/A   Overcast
10:56 PM 50.0 °F - 27.0 °F 41% 30.43 in 10.0 mi West 4.6 mph - N/A   Partly Cloudy
11:56 PM 50.0 °F - - N/A% 30.42 in 10.0 mi Calm Calm - N/A   Scattered Clouds